Hourly Data Report for December 09, 2004

SHERBROOKE A
QUEBEC

45°26'00.000" N
71°41'00.000" W
241.40 m
7028124
71610
YSC

Download Data

Hourly Data (December 2004)
Hourly Data Report for December 9, 2004
TIME
LST
Temp Definition
°C
Dew Point Definition
°C
Rel Hum Definition
%
Precip. Amount Definition
mm

Wind Dir Definition
10's deg

Wind Spd Definition
km/h
Visibility Definition
km
Stn Press Definition
kPa
Hmdx Definition


Wind Chill Definition


Weather Definition


00:00 -3.8 -5.9 85   27 13 2.4 98.95   -9 Snow
01:00 -3.3 -5.9 82   28 17 12.9 99.02   -9  
02:00 -3.6 -6.4 81   30 13 15.0 99.11   -8  
03:00 -3.9 -6.2 84   27 6 15.0 99.12   -7  
04:00 -3.6 -6.5 80   28 13 15.0 99.16   -8  
05:00 -3.9 -6.6 81   28 11 8.0 99.22   -8  
06:00 -3.9 -7.0 79   28 9 15.0 99.28   -8  
07:00 -4.3 -7.3 80   30 7 15.0 99.31   -7  
08:00 -4.3 -7.4 79   32 4 24.1 99.27   -6 Cloudy
09:00 -4.3 -7.1 81   28 6 19.3 99.33   -7 Snow
10:00 -4.2 -7.1 80   24 7 19.3 99.39   -7 Snow
11:00 -3.2 -6.4 79     0 19.3 99.33     Snow
12:00 -3.0 -6.4 77   22 7 24.1 99.26   -6 Cloudy
13:00 -2.7 -6.3 76   21 7 24.1 99.20   -6 Cloudy
14:00 -2.4 -6.2 75   24 6 24.1 99.25   -5 Cloudy
15:00 -2.0 -5.5 77   8 7 24.1 99.18   -5 Cloudy
16:00 -2.4 -5.2 81   5 9 24.1 99.08   -6 Cloudy
17:00 -3.1 -5.4 84   20 7 19.3 99.09   -6 Cloudy
18:00 -3.5 -5.7 85   7 9 15.0 99.00   -7  
19:00 -3.9 -6.0 85   5 6 15.0 98.98   -7  
20:00 -3.8 -5.7 87   4 6 15.0 99.02   -6  
21:00 -3.9 -6.0 85   9 7 15.0 98.89   -7  
22:00 -4.3 -6.2 87   6 7 15.0 98.82   -7  
23:00 -4.3 -6.3 86   6 7 15.0 98.80   -7  

Notes on Data Quality.

Legend

  • E = Estimated
  • M = Missing
  • NA = Not Available*
  • [empty] = Indicates an unobserved value
Date modified: